Find Starlink 30160

NORAD ID: 57441 Int'l Des: 2023-105 Owner: SPXS Country: US Constellation: starlink operational
LEOCIRCULAR

当前视图

正在加载3D地球...

About Starlink 30160

Starlink 30160 (NORAD 57441) is a starlink constellation satellite (v2 mini) launched Jul 24, 2023 by SPXS of US. It operates in LEO, CIRCULAR orbit with a mass of 730.00 kg.

即将过境

Passes for default location (London). Set your location on the main map for personalized predictions.

高度历史

Loading altitude history...

两行轨道根数

1 57441U 23105M 26264.66246740 .00000503 00000-0 27791-4 0 9995
2 57441 43.0049 239.8943 0001491 269.4842 90.5839 15.27579778175310
Epoch: Sep 21, 2026 • Age: 13 hours

当前状态

高度 483.7 km
远地点 / 近地点 N/A
速度 7.62 km/s
星下点 -6.28°S, 16.76°W
发射日期 Jul 24, 2023
运行时间 3.1 years
类型 internet

技术详情

分类 Payload
质量 730.00 kg
干质量 700.00 kg
长度 0.30 m
跨度 29.00 m
形状 ? Box + pan
制造商 SPXS
平台类型 Starlink V2M
阶段状态 In Orbit
所有者/国家 SPXS/US

Most Searched